Аэропорт
Запорожье (UKDE)

 UKDE / OZH
vACC Украина
Днепропетровск (UKDV)
Днепропетровск (UKDV)
 47.86700, 35.31570  / 373 ft

 UKDE 220630Z 01005MPS 9999 OVC008 02/00 Q1023 R02R/090070 NOSIG
 TAF UKDE 220204Z 2203/2212 02005MPS 3100 BR OVC007 TX04/2212Z TN01/2203Z TEMPO 2203/2208 0200 -SNRA FG VV002 BECMG 2208/2210 6000 NSW BKN010

Запорожье (укр. Запоріжжя) — международный аэропорт города Запорожье (Украина) обеспечивающий взлёт и посадку на двух взлётно-посадочных полосах (искусственной и грунтовой). Работает в круглосуточном режиме. Расположен в черте города к востоку от центра на расстоянии около 15 км от центральной части Запорожья. Эксплуатантом аэропорта является коммунальное предприятие «Международный аэропорт Запорожье».

Сценарии и схемы аэропорта Вы можете найти на сайте vACC Украина.



2020 © VATRUS division (Privacy Policy)